Flag for Germany Weather past 2 weeks in Cottbus, Brandenburg, Germany

Now
59 °F

Clear.


Feels Like: 59 °F
Forecast: 40 / 54 °F
Wind: 2 mph from North

Location: Cottbus

Current Time: Apr 21, 2015 at 9:52:59 PM

Latest Report: Apr 21, 2015 at 9:00 PM


Visibility: 28 mi

Pressure: 30.22 "Hg

Humidity: 48%

Dew point: 40 °F

Location of CottbusLocation

Historic Weather in Cottbus — Graph

°F

Cottbus temperature yesterday

Maximum temperature yesterday: 65 °F (at 5:00 PM)
Minimum temperature yesterday: 33 °F (at 6:00 AM)
Average temperature yesterday: 50 °F

Past Weeks' High & Low Weather Summary

 TemperatureHumidityPressure
High73 °F (Apr 15, 5:00 PM)100% (Apr 10, 6:00 AM)30.57 "Hg (Apr 10, 6:00 AM)
Low25 °F (Apr 7, 7:00 AM)19% (Apr 21, 2:00 PM)29.84 "Hg (Apr 15, 8:00 PM)
Average50 °F62%30.22 "Hg
* Reported Apr 6 8:00 PM — Apr 21 8:00 PM, Cottbus, Weather by CustomWeather, © 2015

Note: Actual official high and low records may vary slightly from our data, if they occured in-between our weather recording intervals... More about our weather records

Advertising

Cottbus weather history for previous 24 hours

 ConditionsComfort  
Time TempWeatherWind HumidityBarometerVisibility
8:00 PM
Tue, Apr 21
64 °FSunny.3 mph38%30.19 "Hg43 mi
7:00 PM69 °FPassing clouds.6 mph21%30.16 "Hg37 mi
6:00 PM70 °FSunny.6 mph22%30.16 "Hg28 mi
5:00 PM71 °FSunny.6 mph21%30.16 "Hg22 mi
4:00 PM71 °FSunny.7 mph22%30.17 "Hg17 mi
3:00 PM71 °FSunny.8 mph22%30.17 "Hg17 mi
2:00 PM70 °FSunny.7 mph19%30.18 "Hg14 mi
1:00 PM69 °FSunny.8 mph21%30.19 "Hg15 mi
12:00 PM65 °FSunny.6 mph33%30.22 "Hg16 mi
11:00 AM60 °FSunny.6 mph39%30.25 "Hg17 mi
10:00 AM57 °FSunny.3 mph43%30.26 "Hg17 mi
9:00 AM53 °FSunny.6 mph52%30.27 "Hg22 mi
8:00 AM46 °FSunny.3 mph65%30.28 "Hg22 mi
7:00 AM38 °FSunny.2 mph81%30.28 "Hg31 mi
6:00 AM34 °FSunny.2 mph92%30.29 "Hg25 mi
5:00 AM36 °FClear.2 mph87%30.30 "Hg28 mi
4:00 AM35 °FOvercast.2 mph88%30.32 "Hg31 mi
3:00 AM36 °FPassing clouds.2 mph86%30.32 "Hg31 mi
2:00 AM38 °FClear.1 mph82%30.32 "Hg37 mi
1:00 AM44 °FOvercast.2 mph69%30.32 "Hg40 mi
12:00 AM45 °FOvercast.2 mph65%30.31 "Hg43 mi
11:00 PM
Mon, Apr 20
46 °FOvercast.2 mph62%30.30 "Hg43 mi
10:00 PM50 °FOvercast.2 mph50%30.29 "Hg43 mi
9:00 PM54 °FOvercast.5 mph44%30.27 "Hg43 mi
Weather by CustomWeather, © 2015

See weather overviewHow to use our weather pages